Volver al catálogo

STARLINK-31531

ActivoComunicacionesVLEO
NORAD 59477·PAYLOAD·🇺🇸 United States

Lanzado Apr 10, 2024 desde Cape Canaveral Space Force Station

Loading…

Próximos Pases (próximas 24 horas)

TLE

ActualizadoSource: CelesTrak SupGP

Época: Sep 14, 2026, 20:59 UTC

1 59477C 24068Y   26257.87479167  .00007439  00000+0  26941-3 0  2577
2 59477  43.0017 350.9461 0001631 273.8566  28.5450 15.27578653    19

Sigue STARLINK-31531 en tiempo real con AllMySat

Download on the App Store